Back to Previous

Regional Weather Roundup

182 
ASUS44 KLZK 202305
RWRLZK

WEATHER ROUNDUP FOR ARKANSAS
NATIONAL WEATHER SERVICE LITTLE ROCK AR
600 PM CDT SUN APR 20 2014

NOTE: "FAIR" INDICATES FEW OR NO CLOUDS BELOW 12,000 FEET WITH NO
SIGNIFICANT WEATHER AND/OR OBSTRUCTIONS TO VISIBILITY.

ARZ001-003-010-029-210000-
NORTHWEST ARKANSAS
  
CITY           SKY/WX    TMP DP  RH WIND       PRES   REMARKS
FAYETTEVILLE   CLOUDY    72  53  51 S10       30.08F                  
FORT SMITH     PTSUNNY   79  50  36 CALM      30.04F                  
HARRISON       PTSUNNY   75  47  36 S8        30.08F                  
BENTONVILLE    CLOUDY    73  52  46 SW12      30.09F                  
ROGERS         CLOUDY    72  52  49 SW9       30.09S                  
SILOAM SPGS    CLOUDY    72  52  49 S10       30.09F                  
HIGHFILL       CLOUDY    73  51  46 S8        30.07F                  
SPRINGDALE     PTSUNNY   73  52  46 SW9       30.10F                  
$$

ARZ004-005-016-210000-
NORTH CENTRAL ARKANSAS
  
CITY           SKY/WX    TMP DP  RH WIND       PRES   REMARKS
BATESVILLE     MOSUNNY   79  48  34 SE9       30.07S                  
FLIPPIN        PTSUNNY   79  46  31 SW6       30.07S                  
MTN HOME       MOSUNNY   78  45  30 S5        30.05F                  
$$

ARZ040-041-210000-
WEST CENTRAL ARKANSAS
  
CITY           SKY/WX    TMP DP  RH WIND       PRES   REMARKS
MENA           PTSUNNY   79  48  34 S5        30.08S                  
MOUNT IDA      MOSUNNY   74  53  48 SE6       30.05F                  
$$

ARZ009-017-025-026-028-210000-
NORTHEAST ARKANSAS
  
CITY           SKY/WX    TMP DP  RH WIND       PRES   REMARKS
CORNING        FAIR      77  46  33 SW9       30.09F                  
JONESBORO      PTSUNNY   77  46  33 W3        30.08F                  
NEWPORT        PTSUNNY   78  47  33 S8        30.09F                  
WALNUT RIDGE   CLOUDY    77  48  36 S10       30.09F                  
BLYTHEVILLE    SUNNY     77  44  30 SW8       30.10S                  
$$

ARZ022-023-033-042-044-210000-
CENTRAL ARKANSAS
  
CITY           SKY/WX    TMP DP  RH WIND       PRES   REMARKS
LITTLE ROCK    PTSUNNY   79  51  37 E7        30.07F                  
N LITTLE ROCK  PTSUNNY   78  54  43 SE7       30.07F                  
JACKSONVILLE   MOSUNNY   80  52  38 SE9       30.07F                  
SEARCY         MOSUNNY   79  52  38 VRB7      30.09F                  
HOT SPRINGS    MOSUNNY   80  51  36 SW5       30.07F                  
RUSSELLVILLE   PTSUNNY   79  52  38 SW3       30.06F                  
CLINTON        PTSUNNY   79  54  41 SW6       30.08S                  
$$

ARZ036-210000-
EAST ARKANSAS
  
CITY           SKY/WX    TMP DP  RH WIND       PRES   REMARKS
WEST MEMPHIS   LGT RAIN  77  49  37 S9        30.08F                  
$$

ARZ050-053-066-070-073-210000-
SOUTHWEST ARKANSAS
  
CITY           SKY/WX    TMP DP  RH WIND       PRES   REMARKS
ARKADELPHIA    FAIR      79  56  45 CALM      30.06F                  
CAMDEN         PTSUNNY   81  50  34 MISG      30.05F                  
TEXARKANA      CLOUDY    76  54  46 S8        30.07S                  
EL DORADO      PTSUNNY   78  53  41 E8        30.05F                  
DE QUEEN       CLOUDY    77  56  48 S6        30.05R                  
$$

ARZ056-057-069-210000-
SOUTHEAST ARKANSAS
  
CITY           SKY/WX    TMP DP  RH WIND       PRES   REMARKS
PINE BLUFF     MOSUNNY   77  55  46 SE7       30.06F                  
STUTTGART      SUNNY     81  48  32 SE8       30.09F                  
MONTICELLO     MOSUNNY   80  48  32 SE6       30.07F                  

$$




USA.gov is the U.S. government's official web portal to all federal, state and local government web resources and services.